Location: *
(46.4000°N, 12.6667°E)
Time: 20:14:43
(UTC+00:00)

CZ-4C R/B - Pass Details

Date: 20 June 2021
Orbit: 606 x 1396 km, 63.4° (Epoch: 28 July)

Event Time Altitude Azimuth Distance (km) Brightness Sun altitude
Exits shadow 01:11:18 - 154° (SSE) 2,293 4.1 -15.0°
Reaches altitude 10° 01:11:58 10° 148° (SSE) 2,132 4.0 -15.0°
Maximum altitude 01:15:04 17° 107° (ESE) 1,808 4.1 -14.7°
Drops below altitude 10° 01:18:28 10° 68° (ENE) 2,395 5.4 -14.4°
Sets 01:21:56 0° 50° (NE) 3,494 6.9 -14.1°
